User: anonymous   Login
Location: Oshawa
(43.9000°N, 78.8670°W)
Time: 18:51:48
(UTC-04:00)
Language:

Explorer 7 - Orbit

View from above orbital plane
View from above orbital plane
View from above satellite
View from above satellite

Ground track
Ground track

The orbit data is extracted from the following two-line orbital elements,

1 00022U 59009A   14303.11264051  .00005795  00000-0  49959-3 0   679
2 00022 050.2859 015.8368 0152995 334.1994 025.1377 14.90009300917761
Epoch (UTC): 30 October 2014 02:42:12
Eccentricity: 0.0152995
inclination: 50.2859°
perigee height: 491 km
apogee height: 704 km
right ascension of ascending node: 15.8368°
argument of perigee: 334.1994°
revolutions per day: 14.90009300
mean anomaly at epoch: 25.1377°
orbit number at epoch: 91776

The dashed part of the orbit path shows where the satellite is in the earth's shadow,  

DLR